Location: Bats
(43.6587°N, 0.4584°W)
Time: 13:47:25
(UTC+00:00)

Meteor 1-15 Rocket - Visible Passes

Search period start: 11 April 2026 00:00
Search period end: 21 April 2026 00:00
Orbit: 838 x 906 km, 81.2° (Epoch: 11 April)

Date Brightness Start Highest point End Pass type
(mag) Time Alt. Az. Time Alt. Az. Time Alt. Az.
11 Apr 4.1 19:33:03 10° S 19:38:36 81° E 19:44:11 10° NNE visible
11 Apr 7.1 21:19:43 10° W 21:22:44 15° WNW 21:25:46 10° NNW visible
12 Apr 7.8 04:33:42 10° NE 04:34:41 10° ENE 04:35:40 10° ENE visible
12 Apr 4.2 19:27:26 10° S 19:32:59 85° E 19:38:35 10° NNE visible
12 Apr 7.1 21:14:18 10° W 21:17:09 14° WNW 21:20:02 10° NNW visible
13 Apr 7.9 04:27:38 10° NE 04:29:07 11° ENE 04:30:36 10° ENE visible
13 Apr 4.2 19:21:49 10° S 19:27:22 88° E 19:32:58 10° N visible
13 Apr 7.2 21:08:54 10° W 21:11:35 13° WNW 21:14:17 10° NNW visible
14 Apr 7.8 04:21:42 10° NE 04:23:33 11° ENE 04:25:25 10° ENE visible
14 Apr 4.3 19:16:11 10° S 19:21:45 89° W 19:27:22 10° N visible
14 Apr 7.3 21:03:32 10° W 21:06:00 13° WNW 21:08:30 10° NW visible
15 Apr 7.8 04:15:50 10° NE 04:17:59 12° ENE 04:20:10 10° E visible
15 Apr 4.3 19:10:35 10° S 19:16:08 85° W 19:21:45 10° N visible
15 Apr 7.4 20:58:10 10° W 21:00:26 12° WNW 21:02:43 10° NW visible
16 Apr 7.7 04:10:01 10° NE 04:12:26 13° ENE 04:14:51 10° E visible
16 Apr 7.4 20:52:50 10° W 20:54:51 12° WNW 20:56:55 10° NW visible
17 Apr 7.7 04:04:12 10° NNE 04:06:52 13° ENE 04:09:31 10° E visible
17 Apr 7.5 20:47:31 10° WNW 20:49:18 11° WNW 20:51:03 10° NW visible
18 Apr 7.7 03:58:25 10° NNE 04:01:18 14° ENE 04:04:09 10° E visible
18 Apr 7.7 20:42:18 10° WNW 20:43:43 11° WNW 20:45:09 10° NW visible
19 Apr 7.6 03:52:40 10° NNE 03:55:44 14° ENE 03:58:47 10° E visible
19 Apr 7.8 20:37:10 10° WNW 20:38:09 10° WNW 20:39:08 10° NW visible
20 Apr 7.5 03:46:55 10° NNE 03:50:08 15° ENE 03:53:23 10° E visible
